Time,TemperatureF,DewpointF,PressureIn,WindDirection,WindDirectionDegrees,WindSpeedMPH,WindSpeedGustMPH,Humidity,HourlyPrecipIn,Conditions,Clouds,dailyrainin,SoftwareType,DateUTC
2013-11-24 00:04:00,52.1,49.0,30.13,NW,313,0.0,-999.0,88,-99.99,,,0.09,weatherlink.com 1.10,2013-11-24 07:04:00,
2013-11-24 00:19:00,51.9,49.0,30.13,NW,313,1.0,-999.0,88,-99.99,,,0.00,weatherlink.com 1.10,2013-11-24 07:19:00,
2013-11-24 00:34:00,51.7,49.0,30.13,NW,313,0.0,-999.0,89,-99.99,,,0.00,weatherlink.com 1.10,2013-11-24 07:34:00,
2013-11-24 00:49:00,51.4,49.0,30.13,NW,313,0.0,-999.0,90,-99.99,,,0.00,weatherlink.com 1.10,2013-11-24 07:49:00,
2013-11-24 01:04:00,51.3,49.0,30.12,NW,313,2.0,-999.0,91,-99.99,,,0.00,weatherlink.com 1.10,2013-11-24 08:04:00,
2013-11-24 01:19:00,51.3,49.0,30.13,NW,313,0.0,-999.0,91,-99.99,,,0.00,weatherlink.com 1.10,2013-11-24 08:19:00,
2013-11-24 01:34:00,51.5,49.0,30.13,NW,313,0.0,-999.0,90,-99.99,,,0.00,weatherlink.com 1.10,2013-11-24 08:34:00,
2013-11-24 01:49:00,51.5,49.0,30.13,NW,313,0.0,-999.0,90,-99.99,,,0.00,weatherlink.com 1.10,2013-11-24 08:49:00,
2013-11-24 02:04:00,51.4,48.0,30.13,NW,313,2.0,-999.0,89,-99.99,,,0.00,weatherlink.com 1.10,2013-11-24 09:04:00,
2013-11-24 02:19:00,51.3,48.0,30.14,NW,313,4.0,-999.0,89,-99.99,,,0.00,weatherlink.com 1.10,2013-11-24 09:19:00,
2013-11-24 02:34:00,51.2,48.0,30.14,NW,313,2.0,-999.0,89,-99.99,,,0.00,weatherlink.com 1.10,2013-11-24 09:34:00,
2013-11-24 02:49:00,51.1,48.0,30.14,NW,313,2.0,-999.0,90,-99.99,,,0.00,weatherlink.com 1.10,2013-11-24 09:49:00,
2013-11-24 03:04:00,51.1,48.0,30.14,NW,313,0.0,-999.0,90,-99.99,,,0.00,weatherlink.com 1.10,2013-11-24 10:04:00,
2013-11-24 03:19:00,51.1,48.0,30.14,NW,313,0.0,-999.0,89,-99.99,,,0.00,weatherlink.com 1.10,2013-11-24 10:19:00,
2013-11-24 03:34:00,51.0,48.0,30.14,NW,313,0.0,-999.0,88,-99.99,,,0.00,weatherlink.com 1.10,2013-11-24 10:34:00,
2013-11-24 03:49:00,50.8,47.0,30.14,NW,313,0.0,-999.0,88,-99.99,,,0.00,weatherlink.com 1.10,2013-11-24 10:49:00,
2013-11-24 04:04:00,50.6,48.0,30.14,NW,313,0.0,-999.0,89,-99.99,,,0.00,weatherlink.com 1.10,2013-11-24 11:04:00,
2013-11-24 04:19:00,50.4,48.0,30.14,NW,313,0.0,-999.0,90,-99.99,,,0.00,weatherlink.com 1.10,2013-11-24 11:19:00,
2013-11-24 04:34:00,50.3,48.0,30.14,NW,313,0.0,-999.0,90,-99.99,,,0.00,weatherlink.com 1.10,2013-11-24 11:34:00,
2013-11-24 04:49:00,50.2,48.0,30.14,NW,313,0.0,-999.0,91,-99.99,,,0.00,weatherlink.com 1.10,2013-11-24 11:49:00,
2013-11-24 05:04:00,49.9,47.0,30.14,NW,313,0.0,-999.0,91,-99.99,,,0.00,weatherlink.com 1.10,2013-11-24 12:04:00,
2013-11-24 05:19:00,49.3,47.0,30.14,NW,313,0.0,-999.0,91,-99.99,,,0.00,weatherlink.com 1.10,2013-11-24 12:19:00,
2013-11-24 05:34:00,48.9,47.0,30.15,NW,313,0.0,-999.0,92,-99.99,,,0.00,weatherlink.com 1.10,2013-11-24 12:34:00,
2013-11-24 05:49:00,48.8,47.0,30.15,NW,313,0.0,-999.0,92,-99.99,,,0.00,weatherlink.com 1.10,2013-11-24 12:49:00,
2013-11-24 06:04:00,48.9,47.0,30.16,NW,313,0.0,-999.0,93,-99.99,,,0.00,weatherlink.com 1.10,2013-11-24 13:04:00,
2013-11-24 06:19:00,49.4,48.0,30.16,NW,313,0.0,-999.0,93,-99.99,,,0.00,weatherlink.com 1.10,2013-11-24 13:19:00,
2013-11-24 06:34:00,49.9,48.0,30.16,NW,313,0.0,-999.0,92,-99.99,,,0.00,weatherlink.com 1.10,2013-11-24 13:34:00,
2013-11-24 06:49:00,50.3,48.0,30.17,NW,313,0.0,-999.0,91,-99.99,,,0.00,weatherlink.com 1.10,2013-11-24 13:49:00,
2013-11-24 07:05:00,50.5,48.0,30.17,NW,313,2.0,-999.0,90,-99.99,,,0.00,weatherlink.com 1.10,2013-11-24 14:05:00,
2013-11-24 07:20:00,50.6,48.0,30.17,NW,313,0.0,-999.0,89,-99.99,,,0.00,weatherlink.com 1.10,2013-11-24 14:20:00,
2013-11-24 07:34:00,50.6,48.0,30.18,NW,313,0.0,-999.0,90,-99.99,,,0.00,weatherlink.com 1.10,2013-11-24 14:34:00,
2013-11-24 07:50:00,50.5,48.0,30.18,NW,313,0.0,-999.0,90,-99.99,,,0.00,weatherlink.com 1.10,2013-11-24 14:50:00,
2013-11-24 08:05:00,50.6,48.0,30.18,NW,313,0.0,-999.0,90,-99.99,,,0.00,weatherlink.com 1.10,2013-11-24 15:05:00,
2013-11-24 08:20:00,50.8,48.0,30.18,NW,313,0.0,-999.0,91,-99.99,,,0.00,weatherlink.com 1.10,2013-11-24 15:20:00,
2013-11-24 08:35:00,51.0,48.0,30.18,NNW,328,0.0,-999.0,90,-99.99,,,0.00,weatherlink.com 1.10,2013-11-24 15:35:00,
2013-11-24 08:50:00,51.5,49.0,30.19,NNW,328,0.0,-999.0,90,-99.99,,,0.00,weatherlink.com 1.10,2013-11-24 15:50:00,
2013-11-24 09:05:00,52.0,49.0,30.19,NNW,328,3.0,-999.0,90,-99.99,,,0.00,weatherlink.com 1.10,2013-11-24 16:05:00,
2013-11-24 09:20:00,52.2,49.0,30.20,NNW,328,0.0,-999.0,89,-99.99,,,0.00,weatherlink.com 1.10,2013-11-24 16:20:00,
2013-11-24 09:35:00,53.0,50.0,30.20,NNW,328,0.0,-999.0,88,-99.99,,,0.00,weatherlink.com 1.10,2013-11-24 16:35:00,
2013-11-24 09:50:00,53.5,50.0,30.20,NNW,328,0.0,-999.0,86,-99.99,,,0.00,weatherlink.com 1.10,2013-11-24 16:50:00,
2013-11-24 10:05:00,53.9,49.0,30.20,NNW,328,0.0,-999.0,84,-99.99,,,0.00,weatherlink.com 1.10,2013-11-24 17:05:00,
2013-11-24 10:20:00,54.8,49.0,30.20,NNW,328,0.0,-999.0,80,-99.99,,,0.00,weatherlink.com 1.10,2013-11-24 17:20:00,
2013-11-24 10:35:00,55.1,49.0,30.21,NW,317,2.0,-999.0,79,-99.99,,,0.00,weatherlink.com 1.10,2013-11-24 17:35:00,
2013-11-24 10:50:00,56.1,49.0,30.21,NW,320,1.0,-999.0,77,-99.99,,,0.00,weatherlink.com 1.10,2013-11-24 17:50:00,
2013-11-24 11:05:00,57.5,49.0,30.21,NW,320,3.0,-999.0,74,-99.99,,,0.00,weatherlink.com 1.10,2013-11-24 18:05:00,
2013-11-24 11:20:00,56.6,49.0,30.20,NW,319,0.0,-999.0,75,-99.99,,,0.00,weatherlink.com 1.10,2013-11-24 18:20:00,
2013-11-24 11:35:00,56.4,49.0,30.20,NW,319,0.0,-999.0,75,-99.99,,,0.00,weatherlink.com 1.10,2013-11-24 18:35:00,
2013-11-24 11:51:00,56.1,48.0,30.20,NW,319,0.0,-999.0,75,-99.99,,,0.00,weatherlink.com 1.10,2013-11-24 18:51:00,
2013-11-24 12:06:00,57.2,49.0,30.20,NW,319,0.0,-999.0,74,-99.99,,,0.00,weatherlink.com 1.10,2013-11-24 19:06:00,
2013-11-24 12:21:00,58.8,49.0,30.19,NW,319,2.0,-999.0,70,-99.99,,,0.00,weatherlink.com 1.10,2013-11-24 19:21:00,
2013-11-24 12:36:00,58.2,49.0,30.18,NW,320,2.0,-999.0,72,-99.99,,,0.00,weatherlink.com 1.10,2013-11-24 19:36:00,
2013-11-24 12:51:00,57.9,49.0,30.18,NW,315,2.0,-999.0,71,-99.99,,,0.00,weatherlink.com 1.10,2013-11-24 19:51:00,
2013-11-24 13:06:00,58.7,49.0,30.17,NNW,332,2.0,-999.0,70,-99.99,,,0.00,weatherlink.com 1.10,2013-11-24 20:06:00,
2013-11-24 13:21:00,59.3,49.0,30.17,WNW,297,4.0,-999.0,69,-99.99,,,0.00,weatherlink.com 1.10,2013-11-24 20:21:00,
2013-11-24 13:36:00,59.6,48.0,30.16,WNW,294,2.0,-999.0,66,-99.99,,,0.00,weatherlink.com 1.10,2013-11-24 20:36:00,
2013-11-24 13:51:00,58.4,48.0,30.16,North,349,5.0,-999.0,69,-99.99,,,0.00,weatherlink.com 1.10,2013-11-24 20:51:00,
2013-11-24 14:06:00,58.7,48.0,30.16,West,265,1.0,-999.0,68,-99.99,,,0.00,weatherlink.com 1.10,2013-11-24 21:06:00,
2013-11-24 14:21:00,58.9,48.0,30.16,WNW,295,6.0,-999.0,67,-99.99,,,0.00,weatherlink.com 1.10,2013-11-24 21:21:00,
2013-11-24 14:36:00,59.8,47.0,30.16,NW,304,6.0,-999.0,62,-99.99,,,0.00,weatherlink.com 1.10,2013-11-24 21:36:00,
2013-11-24 14:51:00,59.9,47.0,30.16,NNW,331,2.0,-999.0,63,-99.99,,,0.00,weatherlink.com 1.10,2013-11-24 21:51:00,
2013-11-24 15:05:00,60.4,47.0,30.16,WNW,303,3.0,-999.0,62,-99.99,,,0.00,weatherlink.com 1.10,2013-11-24 22:05:00,
2013-11-24 15:20:00,60.2,47.0,30.16,NW,319,5.0,-999.0,61,-99.99,,,0.00,weatherlink.com 1.10,2013-11-24 22:20:00,
2013-11-24 15:35:00,60.1,46.0,30.16,NW,324,1.0,-999.0,60,-99.99,,,0.00,weatherlink.com 1.10,2013-11-24 22:35:00,
2013-11-24 15:51:00,59.8,47.0,30.16,NW,326,4.0,-999.0,62,-99.99,,,0.00,weatherlink.com 1.10,2013-11-24 22:51:00,
2013-11-24 16:05:00,60.0,47.0,30.16,WNW,301,2.0,-999.0,62,-99.99,,,0.00,weatherlink.com 1.10,2013-11-24 23:05:00,
2013-11-24 16:20:00,60.0,47.0,30.16,WNW,303,3.0,-999.0,63,-99.99,,,0.00,weatherlink.com 1.10,2013-11-24 23:20:00,
2013-11-24 16:35:00,59.5,46.0,30.16,NW,304,3.0,-999.0,62,-99.99,,,0.00,weatherlink.com 1.10,2013-11-24 23:35:00,
2013-11-24 16:50:00,59.1,47.0,30.16,NW,304,3.0,-999.0,64,-99.99,,,0.00,weatherlink.com 1.10,2013-11-24 23:50:00,
2013-11-24 17:05:00,59.0,47.0,30.16,NW,304,1.0,-999.0,64,-99.99,,,0.00,weatherlink.com 1.10,2013-11-25 00:05:00,
2013-11-24 17:20:00,58.6,47.0,30.16,NW,304,0.0,-999.0,66,-99.99,,,0.00,weatherlink.com 1.10,2013-11-25 00:20:00,
2013-11-24 17:35:00,57.8,48.0,30.16,NW,304,0.0,-999.0,69,-99.99,,,0.00,weatherlink.com 1.10,2013-11-25 00:35:00,
2013-11-24 17:50:00,56.7,48.0,30.16,NW,304,0.0,-999.0,73,-99.99,,,0.00,weatherlink.com 1.10,2013-11-25 00:50:00,
2013-11-24 18:05:00,55.7,48.0,30.17,NW,304,0.0,-999.0,75,-99.99,,,0.00,weatherlink.com 1.10,2013-11-25 01:05:00,
2013-11-24 18:20:00,54.6,49.0,30.17,NW,304,0.0,-999.0,81,-99.99,,,0.00,weatherlink.com 1.10,2013-11-25 01:20:00,
2013-11-24 18:35:00,53.6,49.0,30.17,NW,304,0.0,-999.0,83,-99.99,,,0.00,weatherlink.com 1.10,2013-11-25 01:35:00,
2013-11-24 18:50:00,53.0,48.0,30.18,NW,304,0.0,-999.0,84,-99.99,,,0.00,weatherlink.com 1.10,2013-11-25 01:50:00,
2013-11-24 19:05:00,52.5,49.0,30.18,NW,304,0.0,-999.0,86,-99.99,,,0.00,weatherlink.com 1.10,2013-11-25 02:05:00,
2013-11-24 19:20:00,52.4,49.0,30.18,NW,304,0.0,-999.0,87,-99.99,,,0.00,weatherlink.com 1.10,2013-11-25 02:20:00,
2013-11-24 19:35:00,52.0,49.0,30.19,NW,304,0.0,-999.0,88,-99.99,,,0.00,weatherlink.com 1.10,2013-11-25 02:35:00,
2013-11-24 19:50:00,51.3,48.0,30.19,NW,304,0.0,-999.0,89,-99.99,,,0.00,weatherlink.com 1.10,2013-11-25 02:50:00,
2013-11-24 20:05:00,50.9,48.0,30.19,NW,304,0.0,-999.0,90,-99.99,,,0.00,weatherlink.com 1.10,2013-11-25 03:05:00,
2013-11-24 20:20:00,50.7,48.0,30.20,NW,304,0.0,-999.0,91,-99.99,,,0.00,weatherlink.com 1.10,2013-11-25 03:20:00,
2013-11-24 20:35:00,50.3,48.0,30.20,NW,304,0.0,-999.0,91,-99.99,,,0.00,weatherlink.com 1.10,2013-11-25 03:35:00,
2013-11-24 20:50:00,50.1,48.0,30.20,NW,304,0.0,-999.0,91,-99.99,,,0.00,weatherlink.com 1.10,2013-11-25 03:50:00,
2013-11-24 21:05:00,49.8,48.0,30.20,NW,304,0.0,-999.0,92,-99.99,,,0.00,weatherlink.com 1.10,2013-11-25 04:05:00,
2013-11-24 21:20:00,49.9,48.0,30.20,NW,304,0.0,-999.0,92,-99.99,,,0.00,weatherlink.com 1.10,2013-11-25 04:20:00,
2013-11-24 21:35:00,49.7,48.0,30.20,NW,304,0.0,-999.0,92,-99.99,,,0.00,weatherlink.com 1.10,2013-11-25 04:35:00,
2013-11-24 21:50:00,49.9,48.0,30.20,NW,304,0.0,-999.0,93,-99.99,,,0.00,weatherlink.com 1.10,2013-11-25 04:50:00,
2013-11-24 22:05:00,50.0,48.0,30.21,NW,304,0.0,-999.0,93,-99.99,,,0.00,weatherlink.com 1.10,2013-11-25 05:05:00,
2013-11-24 22:20:00,49.9,48.0,30.21,NW,304,0.0,-999.0,92,-99.99,,,0.00,weatherlink.com 1.10,2013-11-25 05:20:00,
2013-11-24 22:35:00,50.1,48.0,30.21,NW,304,0.0,-999.0,91,-99.99,,,0.00,weatherlink.com 1.10,2013-11-25 05:35:00,
2013-11-24 22:50:00,50.2,48.0,30.21,NW,304,0.0,-999.0,91,-99.99,,,0.00,weatherlink.com 1.10,2013-11-25 05:50:00,
2013-11-24 23:05:00,50.1,48.0,30.22,NW,304,0.0,-999.0,91,-99.99,,,0.00,weatherlink.com 1.10,2013-11-25 06:05:00,
2013-11-24 23:20:00,49.8,47.0,30.22,NW,304,0.0,-999.0,91,-99.99,,,0.00,weatherlink.com 1.10,2013-11-25 06:20:00,
2013-11-24 23:35:00,49.2,47.0,30.22,NW,304,0.0,-999.0,91,-99.99,,,0.00,weatherlink.com 1.10,2013-11-25 06:35:00,
2013-11-24 23:50:00,48.8,47.0,30.22,NW,304,0.0,-999.0,92,-99.99,,,0.00,weatherlink.com 1.10,2013-11-25 06:50:00,